Year,Month,Day,Hour,Minute,Value (Times are PST for temperature in C)
2015,01,30,00,00,5.80
2015,01,30,00,01,5.80
2015,01,30,00,02,5.90
2015,01,30,00,03,5.90
2015,01,30,00,04,5.90
2015,01,30,00,05,5.90
2015,01,30,00,06,5.90
2015,01,30,00,07,5.90
2015,01,30,00,08,5.90
2015,01,30,00,09,5.90
2015,01,30,00,10,6.00
2015,01,30,00,11,6.00
2015,01,30,00,12,6.00
2015,01,30,00,13,6.00
2015,01,30,00,14,6.00
2015,01,30,00,15,6.00
2015,01,30,00,16,6.00
2015,01,30,00,17,6.00
2015,01,30,00,18,6.00
2015,01,30,00,19,6.00
2015,01,30,00,20,6.00
2015,01,30,00,21,6.00
2015,01,30,00,22,6.00
2015,01,30,00,23,6.00
2015,01,30,00,24,6.00
2015,01,30,00,25,6.10
2015,01,30,00,26,6.10
2015,01,30,00,27,6.10
2015,01,30,00,28,6.10
2015,01,30,00,29,6.10
2015,01,30,00,30,6.10
2015,01,30,00,31,6.10
2015,01,30,00,32,6.10
2015,01,30,00,33,6.10
2015,01,30,00,34,6.10
2015,01,30,00,35,6.10
2015,01,30,00,36,6.10
2015,01,30,00,37,6.10
2015,01,30,00,38,6.10
2015,01,30,00,39,6.10
2015,01,30,00,40,6.10
2015,01,30,00,41,6.10
2015,01,30,00,42,6.10
2015,01,30,00,43,6.10
2015,01,30,00,44,6.10
2015,01,30,00,45,6.10
2015,01,30,00,46,6.10
2015,01,30,00,47,6.10
2015,01,30,00,48,6.10
2015,01,30,00,49,6.10
2015,01,30,00,50,6.10
2015,01,30,00,51,6.10
2015,01,30,00,52,6.10
2015,01,30,00,53,6.20
2015,01,30,00,54,6.20
2015,01,30,00,55,6.10
2015,01,30,00,56,6.20
2015,01,30,00,57,6.20
2015,01,30,00,58,6.20
2015,01,30,00,59,6.20
2015,01,30,01,00,6.20
2015,01,30,01,01,6.20
2015,01,30,01,02,6.20
2015,01,30,01,03,6.20
2015,01,30,01,04,6.20
2015,01,30,01,05,6.20
2015,01,30,01,06,6.20
2015,01,30,01,07,6.20
2015,01,30,01,08,6.20
2015,01,30,01,09,6.20
2015,01,30,01,10,6.20
2015,01,30,01,11,6.20
2015,01,30,01,12,6.20
2015,01,30,01,13,6.20
2015,01,30,01,14,6.20
2015,01,30,01,15,6.20
2015,01,30,01,16,6.20
2015,01,30,01,17,6.20
2015,01,30,01,18,6.20
2015,01,30,01,19,6.20
2015,01,30,01,20,6.20
2015,01,30,01,21,6.30
2015,01,30,01,22,6.30
2015,01,30,01,23,6.30
2015,01,30,01,24,6.30
2015,01,30,01,25,6.30
2015,01,30,01,26,6.30
2015,01,30,01,27,6.30
2015,01,30,01,28,6.30
2015,01,30,01,29,6.30
2015,01,30,01,30,6.30
2015,01,30,01,31,6.30
2015,01,30,01,32,6.30
2015,01,30,01,33,6.30
2015,01,30,01,34,6.30
2015,01,30,01,35,6.30
2015,01,30,01,36,6.30
2015,01,30,01,37,6.30
2015,01,30,01,38,6.30
2015,01,30,01,39,6.30
2015,01,30,01,40,6.30
2015,01,30,01,41,6.30
2015,01,30,01,42,6.30
2015,01,30,01,43,6.30
2015,01,30,01,44,6.30
2015,01,30,01,45,6.30
2015,01,30,01,46,6.30
2015,01,30,01,47,6.30
2015,01,30,01,48,6.30
2015,01,30,01,49,6.20
2015,01,30,01,50,6.20
2015,01,30,01,51,6.20
2015,01,30,01,52,6.20
2015,01,30,01,53,6.20
2015,01,30,01,54,6.20
2015,01,30,01,55,6.20
2015,01,30,01,56,6.20
2015,01,30,01,57,6.20
2015,01,30,01,58,6.20
2015,01,30,01,59,6.20
2015,01,30,02,00,6.20
2015,01,30,02,01,6.20
2015,01,30,02,02,6.20
2015,01,30,02,03,6.20
2015,01,30,02,04,6.20
2015,01,30,02,05,6.20
2015,01,30,02,06,6.10
2015,01,30,02,07,6.10
2015,01,30,02,08,6.10
2015,01,30,02,09,6.10
2015,01,30,02,10,6.10
2015,01,30,02,11,6.10
2015,01,30,02,12,6.10
2015,01,30,02,13,6.10
2015,01,30,02,14,6.10
2015,01,30,02,15,6.10
2015,01,30,02,16,6.10
2015,01,30,02,17,6.10
2015,01,30,02,18,6.10
2015,01,30,02,19,6.10
2015,01,30,02,20,6.20
2015,01,30,02,21,6.20
2015,01,30,02,22,6.20
2015,01,30,02,23,6.20
2015,01,30,02,24,6.30
2015,01,30,02,25,6.30
2015,01,30,02,26,6.30
2015,01,30,02,27,6.30
2015,01,30,02,28,6.30
2015,01,30,02,29,6.30
2015,01,30,02,30,6.20
2015,01,30,02,31,6.20
2015,01,30,02,32,6.20
2015,01,30,02,33,6.10
2015,01,30,02,34,6.10
2015,01,30,02,35,6.00
2015,01,30,02,36,6.00
2015,01,30,02,37,5.90
2015,01,30,02,38,5.80
2015,01,30,02,39,5.80
2015,01,30,02,40,5.70
2015,01,30,02,41,5.70
2015,01,30,02,42,5.70
2015,01,30,02,43,5.70
2015,01,30,02,44,5.70
2015,01,30,02,45,5.70
2015,01,30,02,46,5.60
2015,01,30,02,47,5.50
2015,01,30,02,48,5.40
2015,01,30,02,49,5.30
2015,01,30,02,50,5.20
2015,01,30,02,51,5.10
2015,01,30,02,52,5.00
2015,01,30,02,53,5.00
2015,01,30,02,54,4.90
2015,01,30,02,55,4.80
2015,01,30,02,56,4.80
2015,01,30,02,57,4.80
2015,01,30,02,58,4.70
2015,01,30,02,59,4.70
2015,01,30,03,00,4.70
2015,01,30,03,01,4.70
2015,01,30,03,02,4.60
2015,01,30,03,03,4.60
2015,01,30,03,04,4.60
2015,01,30,03,05,4.50
2015,01,30,03,06,4.50
2015,01,30,03,07,4.40
2015,01,30,03,08,4.40
2015,01,30,03,09,4.40
2015,01,30,03,10,4.30
2015,01,30,03,11,4.30
2015,01,30,03,12,4.30
2015,01,30,03,13,4.20
2015,01,30,03,14,4.20
2015,01,30,03,15,4.10
2015,01,30,03,16,4.10
2015,01,30,03,17,4.10
2015,01,30,03,18,4.10
2015,01,30,03,19,4.10
2015,01,30,03,20,4.10
2015,01,30,03,21,4.20
2015,01,30,03,22,4.20
2015,01,30,03,23,4.20
2015,01,30,03,24,4.20
2015,01,30,03,25,4.20
2015,01,30,03,26,4.20
2015,01,30,03,27,4.20
2015,01,30,03,28,4.20
2015,01,30,03,29,4.20
2015,01,30,03,30,4.10
2015,01,30,03,31,4.10
2015,01,30,03,32,4.10
2015,01,30,03,33,4.10
2015,01,30,03,34,4.10
2015,01,30,03,35,4.10
2015,01,30,03,36,4.10
2015,01,30,03,37,4.10
2015,01,30,03,38,4.20
2015,01,30,03,39,4.20
2015,01,30,03,40,4.20
2015,01,30,03,41,4.20
2015,01,30,03,42,4.30
2015,01,30,03,43,4.30
2015,01,30,03,44,4.30
2015,01,30,03,45,4.30
2015,01,30,03,46,4.30
2015,01,30,03,47,4.30
2015,01,30,03,48,4.30
2015,01,30,03,49,4.30
2015,01,30,03,50,4.30
2015,01,30,03,51,4.30
2015,01,30,03,52,4.30
2015,01,30,03,53,4.30
2015,01,30,03,54,4.30
2015,01,30,03,55,4.20
2015,01,30,03,56,4.20
2015,01,30,03,57,4.20
2015,01,30,03,58,4.10
2015,01,30,03,59,4.10
2015,01,30,04,00,4.10
2015,01,30,04,01,4.10
2015,01,30,04,02,4.00
2015,01,30,04,03,4.00
2015,01,30,04,04,3.90
2015,01,30,04,05,3.90
2015,01,30,04,06,3.80
2015,01,30,04,07,3.80
2015,01,30,04,08,3.80
2015,01,30,04,09,3.70
2015,01,30,04,10,3.70
2015,01,30,04,11,3.70
2015,01,30,04,12,3.70
2015,01,30,04,13,3.70
2015,01,30,04,14,3.70
2015,01,30,04,15,3.70
2015,01,30,04,16,3.70
2015,01,30,04,17,3.70
2015,01,30,04,18,3.70
2015,01,30,04,19,3.80
2015,01,30,04,20,3.80
2015,01,30,04,21,3.80
2015,01,30,04,22,3.80
2015,01,30,04,23,3.80
2015,01,30,04,24,3.80
2015,01,30,04,25,3.80
2015,01,30,04,26,3.80
2015,01,30,04,27,3.80
2015,01,30,04,28,3.80
2015,01,30,04,29,3.80
2015,01,30,04,30,3.80
2015,01,30,04,31,3.80
2015,01,30,04,32,3.80
2015,01,30,04,33,3.80
2015,01,30,04,34,3.80
2015,01,30,04,35,3.70
2015,01,30,04,36,3.70
2015,01,30,04,37,3.70
2015,01,30,04,38,3.60
2015,01,30,04,39,3.60
2015,01,30,04,40,3.60
2015,01,30,04,41,3.50
2015,01,30,04,42,3.50
2015,01,30,04,43,3.50
2015,01,30,04,44,3.50
2015,01,30,04,45,3.50
2015,01,30,04,46,3.50
2015,01,30,04,47,3.50
2015,01,30,04,48,3.50
2015,01,30,04,49,3.50
2015,01,30,04,50,3.60
2015,01,30,04,51,3.60
2015,01,30,04,52,3.60
2015,01,30,04,53,3.50
2015,01,30,04,54,3.50
2015,01,30,04,55,3.50
2015,01,30,04,56,3.50
2015,01,30,04,57,3.50
2015,01,30,04,58,3.50
2015,01,30,04,59,3.50
2015,01,30,05,00,3.50
2015,01,30,05,01,3.50
2015,01,30,05,02,3.50
2015,01,30,05,03,3.40
2015,01,30,05,04,3.50
2015,01,30,05,05,3.50
2015,01,30,05,06,3.50
2015,01,30,05,07,3.50
2015,01,30,05,08,3.60
2015,01,30,05,09,3.60
2015,01,30,05,10,3.70
2015,01,30,05,11,3.70
2015,01,30,05,12,3.70
2015,01,30,05,13,3.80
2015,01,30,05,14,3.90
2015,01,30,05,15,4.00
2015,01,30,05,16,4.00
2015,01,30,05,17,4.10
2015,01,30,05,18,4.10
2015,01,30,05,19,4.10
2015,01,30,05,20,4.10
2015,01,30,05,21,4.10
2015,01,30,05,22,4.10
2015,01,30,05,23,4.10
2015,01,30,05,24,4.00
2015,01,30,05,25,4.00
2015,01,30,05,26,4.00
2015,01,30,05,27,4.00
2015,01,30,05,28,4.00
2015,01,30,05,29,4.00
2015,01,30,05,30,4.00
2015,01,30,05,31,4.00
2015,01,30,05,32,4.00
2015,01,30,05,33,3.90
2015,01,30,05,34,3.90
2015,01,30,05,35,4.00
2015,01,30,05,36,3.90
2015,01,30,05,37,3.90
2015,01,30,05,38,3.90
2015,01,30,05,39,3.90
2015,01,30,05,40,3.80
2015,01,30,05,41,3.80
2015,01,30,05,42,3.80
2015,01,30,05,43,3.80
2015,01,30,05,44,3.80
2015,01,30,05,45,3.80
2015,01,30,05,46,3.80
2015,01,30,05,47,3.80
2015,01,30,05,48,3.80
2015,01,30,05,49,3.80
2015,01,30,05,50,3.80
2015,01,30,05,51,3.90
2015,01,30,05,52,3.90
2015,01,30,05,53,3.90
2015,01,30,05,54,3.90
2015,01,30,05,55,3.90
2015,01,30,05,56,3.90
2015,01,30,05,57,3.90
2015,01,30,05,58,3.90
2015,01,30,05,59,3.90
2015,01,30,06,00,3.90
2015,01,30,06,01,3.80
2015,01,30,06,02,3.80
2015,01,30,06,03,3.80
2015,01,30,06,04,3.80
2015,01,30,06,05,3.80
2015,01,30,06,06,3.80
2015,01,30,06,07,3.80
2015,01,30,06,08,3.80
2015,01,30,06,09,3.80
2015,01,30,06,10,3.80
2015,01,30,06,11,3.80
2015,01,30,06,12,3.80
2015,01,30,06,13,3.80
2015,01,30,06,14,3.80
2015,01,30,06,15,3.80
2015,01,30,06,16,3.80
2015,01,30,06,17,3.80
2015,01,30,06,18,3.80
2015,01,30,06,19,3.80
2015,01,30,06,20,3.80
2015,01,30,06,21,3.80
2015,01,30,06,22,3.80
2015,01,30,06,23,3.80
2015,01,30,06,24,3.80
2015,01,30,06,25,3.80
2015,01,30,06,26,3.80
2015,01,30,06,27,3.90
2015,01,30,06,28,3.90
2015,01,30,06,29,3.90
2015,01,30,06,30,3.90
2015,01,30,06,31,3.90
2015,01,30,06,32,3.90
2015,01,30,06,33,4.00
2015,01,30,06,34,4.00
2015,01,30,06,35,4.00
2015,01,30,06,36,4.00
2015,01,30,06,37,4.00
2015,01,30,06,38,4.00
2015,01,30,06,39,4.00
2015,01,30,06,42,4.00
2015,01,30,06,43,4.10
2015,01,30,06,44,4.10
2015,01,30,06,45,4.10
2015,01,30,06,46,4.10
2015,01,30,06,47,4.10
2015,01,30,06,48,4.10
2015,01,30,06,49,4.00
2015,01,30,06,50,4.00
2015,01,30,06,51,4.00
2015,01,30,06,52,3.90
2015,01,30,06,53,3.90
2015,01,30,06,54,3.90
2015,01,30,06,55,4.00
2015,01,30,06,56,4.00
2015,01,30,06,57,4.10
2015,01,30,06,58,4.10
2015,01,30,06,59,4.10
2015,01,30,07,00,4.20
2015,01,30,07,01,4.20
2015,01,30,07,02,4.20
2015,01,30,07,03,4.20
2015,01,30,07,04,4.20
2015,01,30,07,05,4.20
2015,01,30,07,06,4.20
2015,01,30,07,07,4.20
2015,01,30,07,08,4.20
2015,01,30,07,09,4.20
2015,01,30,07,10,4.20
2015,01,30,07,11,4.10
2015,01,30,07,12,4.10
2015,01,30,07,13,4.10
2015,01,30,07,14,4.10
2015,01,30,07,15,4.10
2015,01,30,07,16,4.10
2015,01,30,07,17,4.10
2015,01,30,07,18,4.10
2015,01,30,07,19,4.00
2015,01,30,07,20,4.00
2015,01,30,07,21,4.00
2015,01,30,07,22,4.00
2015,01,30,07,23,4.00
2015,01,30,07,24,4.00
2015,01,30,07,25,3.90
2015,01,30,07,26,3.90
2015,01,30,07,27,3.90
2015,01,30,07,28,3.90
2015,01,30,07,29,3.90
2015,01,30,07,30,3.90
2015,01,30,07,31,3.90
2015,01,30,07,32,3.90
2015,01,30,07,33,3.80
2015,01,30,07,34,3.80
2015,01,30,07,35,3.90
2015,01,30,07,36,3.90
2015,01,30,07,37,3.90
2015,01,30,07,38,3.90
2015,01,30,07,39,3.90
2015,01,30,07,40,3.90
2015,01,30,07,41,3.90
2015,01,30,07,42,3.80
2015,01,30,07,43,3.80
2015,01,30,07,44,3.80
2015,01,30,07,45,3.80
2015,01,30,07,46,3.80
2015,01,30,07,47,3.80
2015,01,30,07,48,3.80
2015,01,30,07,49,3.80
2015,01,30,07,50,3.80
2015,01,30,07,51,3.70
2015,01,30,07,52,3.70
2015,01,30,07,53,3.70
2015,01,30,07,54,3.70
2015,01,30,07,55,3.70
2015,01,30,07,56,3.70
2015,01,30,07,57,3.70
2015,01,30,07,58,3.70
2015,01,30,07,59,3.70
2015,01,30,08,00,3.70
2015,01,30,08,01,3.70
2015,01,30,08,02,3.70
2015,01,30,08,03,3.70
2015,01,30,08,04,3.70
2015,01,30,08,05,3.70
2015,01,30,08,06,3.70
2015,01,30,08,07,3.70
2015,01,30,08,08,3.80
2015,01,30,08,09,3.80
2015,01,30,08,10,3.80
2015,01,30,08,11,3.80
2015,01,30,08,12,3.80
2015,01,30,08,13,3.80
2015,01,30,08,14,3.80
2015,01,30,08,15,3.90
2015,01,30,08,16,3.90
2015,01,30,08,17,3.90
2015,01,30,08,18,3.90
2015,01,30,08,19,4.00
2015,01,30,08,20,4.00
2015,01,30,08,21,4.00
2015,01,30,08,22,4.10
2015,01,30,08,23,4.20
2015,01,30,08,24,4.30
2015,01,30,08,25,4.40
2015,01,30,08,26,4.50
2015,01,30,08,27,4.60
2015,01,30,08,28,4.70
2015,01,30,08,29,4.70
2015,01,30,08,30,4.80
2015,01,30,08,31,4.90
2015,01,30,08,32,5.10
2015,01,30,08,33,5.20
2015,01,30,08,34,5.30
2015,01,30,08,35,5.50
2015,01,30,08,36,5.60
2015,01,30,08,37,5.60
2015,01,30,08,38,5.60
2015,01,30,08,39,5.60
2015,01,30,08,40,5.50
2015,01,30,08,41,5.40
2015,01,30,08,42,5.40
2015,01,30,08,43,5.30
2015,01,30,08,44,5.30
2015,01,30,08,45,5.20
2015,01,30,08,46,5.20
2015,01,30,08,47,5.30
2015,01,30,08,48,5.30
2015,01,30,08,49,5.30
2015,01,30,08,50,5.30
2015,01,30,08,51,5.40
2015,01,30,08,52,5.40
2015,01,30,08,53,5.40
2015,01,30,08,54,5.50
2015,01,30,08,55,5.50
2015,01,30,08,56,5.60
2015,01,30,08,57,5.70
2015,01,30,08,58,5.80
2015,01,30,08,59,5.90
2015,01,30,09,00,6.10
2015,01,30,09,01,6.20
2015,01,30,09,02,6.40
2015,01,30,09,03,6.50
2015,01,30,09,04,6.70
2015,01,30,09,05,6.80
2015,01,30,09,06,7.00
2015,01,30,09,07,7.20
2015,01,30,09,08,7.30
2015,01,30,09,09,7.50
2015,01,30,09,10,7.60
2015,01,30,09,11,7.70
2015,01,30,09,12,7.80
2015,01,30,09,13,7.90
2015,01,30,09,14,8.00
2015,01,30,09,15,8.10
2015,01,30,09,16,8.20
2015,01,30,09,17,8.30
2015,01,30,09,18,8.40
2015,01,30,09,19,8.50
2015,01,30,09,20,8.60
2015,01,30,09,21,8.70
2015,01,30,09,22,8.80
2015,01,30,09,23,8.80
2015,01,30,09,24,8.90
2015,01,30,09,25,9.00
2015,01,30,09,26,9.00
2015,01,30,09,27,9.10
2015,01,30,09,28,9.10
2015,01,30,09,29,9.10
2015,01,30,09,30,9.20
2015,01,30,09,31,9.20
2015,01,30,09,32,9.20
2015,01,30,09,33,9.20
2015,01,30,09,34,9.30
2015,01,30,09,35,9.30
2015,01,30,09,36,9.30
2015,01,30,09,37,9.30
2015,01,30,09,38,9.30
2015,01,30,09,39,9.40
2015,01,30,09,40,9.40
2015,01,30,09,41,9.40
2015,01,30,09,42,9.40
2015,01,30,09,43,9.40
2015,01,30,09,44,9.40
2015,01,30,09,45,9.40
2015,01,30,09,46,9.40
2015,01,30,09,47,9.40
2015,01,30,09,48,9.40
2015,01,30,09,49,9.30
2015,01,30,09,50,9.30
2015,01,30,09,51,9.30
2015,01,30,09,52,9.30
2015,01,30,09,53,9.30
2015,01,30,09,54,9.20
2015,01,30,09,55,9.20
2015,01,30,09,56,9.20
2015,01,30,09,57,9.20
2015,01,30,09,58,9.20
2015,01,30,09,59,9.20
2015,01,30,10,00,9.20
2015,01,30,10,01,9.10
2015,01,30,10,02,9.10
2015,01,30,10,03,9.10
2015,01,30,10,04,9.10
2015,01,30,10,05,9.00
2015,01,30,10,06,9.00
2015,01,30,10,07,8.90
2015,01,30,10,08,8.90
2015,01,30,10,09,8.80
2015,01,30,10,10,8.80
2015,01,30,10,11,8.70
2015,01,30,10,12,8.70
2015,01,30,10,13,8.70
2015,01,30,10,14,8.60
2015,01,30,10,15,8.60
2015,01,30,10,16,8.60
2015,01,30,10,17,8.60
2015,01,30,10,18,8.60
2015,01,30,10,19,8.60
2015,01,30,10,20,8.60
2015,01,30,10,21,8.60
2015,01,30,10,22,8.60
2015,01,30,10,23,8.60
2015,01,30,10,24,8.60
2015,01,30,10,25,8.60
2015,01,30,10,26,8.60
2015,01,30,10,27,8.70
2015,01,30,10,28,8.70
2015,01,30,10,29,8.70
2015,01,30,10,30,8.70
2015,01,30,10,31,8.70
2015,01,30,10,32,8.70
2015,01,30,10,33,8.70
2015,01,30,10,34,8.70
2015,01,30,10,35,8.70
2015,01,30,10,36,8.70
2015,01,30,10,37,8.70
2015,01,30,10,38,8.60
2015,01,30,10,39,8.60
2015,01,30,10,40,8.60
2015,01,30,10,41,8.60
2015,01,30,10,42,8.60
2015,01,30,10,43,8.60
2015,01,30,10,44,8.60
2015,01,30,10,45,8.60
2015,01,30,10,46,8.60
2015,01,30,10,47,8.60
2015,01,30,10,48,8.60
2015,01,30,10,49,8.50
2015,01,30,10,50,8.50
2015,01,30,10,51,8.50
2015,01,30,10,52,8.40
2015,01,30,10,53,8.40
2015,01,30,10,54,8.40
2015,01,30,10,55,8.30
2015,01,30,10,56,8.30
2015,01,30,10,57,8.30
2015,01,30,10,58,8.30
2015,01,30,10,59,8.20
2015,01,30,11,00,8.20
2015,01,30,11,01,8.20
2015,01,30,11,02,8.20
2015,01,30,11,03,8.20
2015,01,30,11,04,8.20
2015,01,30,11,05,8.20
2015,01,30,11,06,8.20
2015,01,30,11,07,8.20
2015,01,30,11,08,8.20
2015,01,30,11,09,8.20
2015,01,30,11,10,8.20
2015,01,30,11,11,8.20
2015,01,30,11,12,8.20
2015,01,30,11,13,8.20
2015,01,30,11,14,8.20
2015,01,30,11,15,8.20
2015,01,30,11,16,8.20
2015,01,30,11,17,8.20
2015,01,30,11,18,8.20
2015,01,30,11,19,8.20
2015,01,30,11,20,8.20
2015,01,30,11,21,8.10
2015,01,30,11,22,8.10
2015,01,30,11,23,8.10
2015,01,30,11,24,8.00
2015,01,30,11,25,7.90
2015,01,30,11,26,7.90
2015,01,30,11,27,7.90
2015,01,30,11,28,7.90
2015,01,30,11,29,7.80
2015,01,30,11,30,7.80
2015,01,30,11,31,7.80
2015,01,30,11,32,7.80
2015,01,30,11,33,7.80
2015,01,30,11,34,7.80
2015,01,30,11,35,7.80
2015,01,30,11,36,7.90
2015,01,30,11,37,7.90
2015,01,30,11,38,7.90
2015,01,30,11,39,8.00
2015,01,30,11,40,8.00
2015,01,30,11,41,8.10
2015,01,30,11,42,8.20
2015,01,30,11,43,8.20
2015,01,30,11,44,8.30
2015,01,30,11,45,8.30
2015,01,30,11,46,8.40
2015,01,30,11,47,8.50
2015,01,30,11,48,8.50
2015,01,30,11,49,8.60
2015,01,30,11,50,8.70
2015,01,30,11,51,8.70
2015,01,30,11,52,8.80
2015,01,30,11,53,8.80
2015,01,30,11,54,8.80
2015,01,30,11,55,8.90
2015,01,30,11,56,9.00
2015,01,30,11,57,9.10
2015,01,30,11,58,9.10
2015,01,30,11,59,9.20
2015,01,30,12,00,9.30
2015,01,30,12,01,9.30
2015,01,30,12,02,9.30
2015,01,30,12,03,9.30
2015,01,30,12,04,9.30
2015,01,30,12,05,9.30
2015,01,30,12,06,9.20
2015,01,30,12,07,9.20
2015,01,30,12,08,9.10
2015,01,30,12,09,9.10
2015,01,30,12,10,9.00
2015,01,30,12,11,8.90
2015,01,30,12,12,8.90
2015,01,30,12,13,8.80
2015,01,30,12,14,8.80
2015,01,30,12,15,8.80
2015,01,30,12,16,8.80
2015,01,30,12,17,8.80
2015,01,30,12,18,8.80
2015,01,30,12,19,8.70
2015,01,30,12,20,8.70
2015,01,30,12,21,8.60
2015,01,30,12,22,8.60
2015,01,30,12,23,8.50
2015,01,30,12,24,8.40
2015,01,30,12,25,8.30
2015,01,30,12,26,8.30
2015,01,30,12,27,8.20
2015,01,30,12,28,8.20
2015,01,30,12,29,8.20
2015,01,30,12,30,8.10
2015,01,30,12,31,8.10
2015,01,30,12,32,8.10
2015,01,30,12,33,8.10
2015,01,30,12,34,8.10
2015,01,30,12,35,8.10
2015,01,30,12,36,8.00
2015,01,30,12,37,8.00
2015,01,30,12,38,8.00
2015,01,30,12,39,8.00
2015,01,30,12,40,8.00
2015,01,30,12,41,8.00
2015,01,30,12,42,8.00
2015,01,30,12,43,8.00
2015,01,30,12,44,8.00
2015,01,30,12,45,7.90
2015,01,30,12,46,7.90
2015,01,30,12,47,7.90
2015,01,30,12,48,7.90
2015,01,30,12,49,7.90
2015,01,30,12,50,7.90
2015,01,30,12,51,7.90
2015,01,30,12,52,7.90
2015,01,30,12,53,7.90
2015,01,30,12,54,7.90
2015,01,30,12,55,7.90
2015,01,30,12,56,7.90
2015,01,30,12,57,7.90
2015,01,30,12,58,7.90
2015,01,30,12,59,7.90
2015,01,30,13,00,7.90
2015,01,30,13,01,7.90
2015,01,30,13,02,7.90
2015,01,30,13,03,7.80
2015,01,30,13,04,7.80
2015,01,30,13,05,7.80
2015,01,30,13,06,7.80
2015,01,30,13,07,7.80
2015,01,30,13,08,7.80
2015,01,30,13,09,7.80
2015,01,30,13,10,7.80
2015,01,30,13,11,7.80
2015,01,30,13,12,7.80
2015,01,30,13,13,7.80
2015,01,30,13,14,7.90
2015,01,30,13,15,7.90
2015,01,30,13,16,7.90
2015,01,30,13,17,7.90
2015,01,30,13,18,7.90
2015,01,30,13,19,8.00
2015,01,30,13,20,8.00
2015,01,30,13,21,8.00
2015,01,30,13,22,7.90
2015,01,30,13,23,7.90
2015,01,30,13,24,7.90
2015,01,30,13,25,7.90
2015,01,30,13,26,7.90
2015,01,30,13,27,7.90
2015,01,30,13,28,7.90
2015,01,30,13,29,7.90
2015,01,30,13,30,7.90
2015,01,30,13,31,7.90
2015,01,30,13,32,7.90
2015,01,30,13,33,7.90
2015,01,30,13,34,7.90
2015,01,30,13,35,7.90
2015,01,30,13,36,7.90
2015,01,30,13,37,7.90
2015,01,30,13,38,7.90
2015,01,30,13,39,7.90
2015,01,30,13,40,7.90
2015,01,30,13,41,7.90
2015,01,30,13,42,7.90
2015,01,30,13,43,7.90
2015,01,30,13,44,7.90
2015,01,30,13,45,7.90
2015,01,30,13,46,7.90
2015,01,30,13,47,7.90
2015,01,30,13,48,7.90
2015,01,30,13,49,7.90
2015,01,30,13,50,7.90
2015,01,30,13,51,7.90
2015,01,30,13,52,7.90
2015,01,30,13,53,7.90
2015,01,30,13,54,7.90
2015,01,30,13,55,7.90
2015,01,30,13,56,7.90
2015,01,30,13,57,7.90
2015,01,30,13,58,8.00
2015,01,30,13,59,8.00
2015,01,30,14,00,8.00
2015,01,30,14,01,8.10
2015,01,30,14,02,8.10
2015,01,30,14,03,8.00
2015,01,30,14,04,8.00
2015,01,30,14,05,8.00
2015,01,30,14,06,7.90
2015,01,30,14,07,7.90
2015,01,30,14,08,7.90
2015,01,30,14,09,7.90
2015,01,30,14,10,7.90
2015,01,30,14,11,7.90
2015,01,30,14,12,7.90
2015,01,30,14,13,7.90
2015,01,30,14,14,7.90
2015,01,30,14,15,8.00
2015,01,30,14,16,8.00
2015,01,30,14,17,8.00
2015,01,30,14,18,8.00
2015,01,30,14,19,8.10
2015,01,30,14,20,8.10
2015,01,30,14,21,8.10
2015,01,30,14,22,8.10
2015,01,30,14,23,8.10
2015,01,30,14,24,8.10
2015,01,30,14,25,8.10
2015,01,30,14,26,8.10
2015,01,30,14,27,8.10
2015,01,30,14,28,8.10
2015,01,30,14,29,8.10
2015,01,30,14,30,8.10
2015,01,30,14,31,8.10
2015,01,30,14,32,8.10
2015,01,30,14,33,8.10
2015,01,30,14,34,8.10
2015,01,30,14,35,8.10
2015,01,30,14,36,8.10
2015,01,30,14,37,8.10
2015,01,30,14,38,8.10
2015,01,30,14,39,8.10
2015,01,30,14,40,8.10
2015,01,30,14,41,8.20
2015,01,30,14,42,8.20
2015,01,30,14,43,8.20
2015,01,30,14,44,8.20
2015,01,30,14,45,8.20
2015,01,30,14,46,8.20
2015,01,30,14,47,8.20
2015,01,30,14,48,8.20
2015,01,30,14,49,8.20
2015,01,30,14,50,8.20
2015,01,30,14,51,8.20
2015,01,30,14,52,8.20
2015,01,30,14,53,8.20
2015,01,30,14,54,8.30
2015,01,30,14,55,8.30
2015,01,30,14,56,8.30
2015,01,30,14,57,8.30
2015,01,30,14,58,8.30
2015,01,30,14,59,8.30
2015,01,30,15,00,8.30
2015,01,30,15,01,8.30
2015,01,30,15,02,8.30
2015,01,30,15,03,8.30
2015,01,30,15,04,8.30
2015,01,30,15,05,8.30
2015,01,30,15,06,8.30
2015,01,30,15,07,8.30
2015,01,30,15,08,8.30
2015,01,30,15,09,8.30
2015,01,30,15,10,8.30
2015,01,30,15,11,8.30
2015,01,30,15,12,8.30
2015,01,30,15,13,8.30
2015,01,30,15,14,8.30
2015,01,30,15,15,8.30
2015,01,30,15,16,8.40
2015,01,30,15,17,8.40
2015,01,30,15,18,8.40
2015,01,30,15,19,8.40
2015,01,30,15,20,8.40
2015,01,30,15,21,8.50
2015,01,30,15,22,8.50
2015,01,30,15,23,8.50
2015,01,30,15,24,8.60
2015,01,30,15,25,8.60
2015,01,30,15,26,8.60
2015,01,30,15,27,8.60
2015,01,30,15,28,8.60
2015,01,30,15,29,8.70
2015,01,30,15,30,8.70
2015,01,30,15,31,8.80
2015,01,30,15,32,8.80
2015,01,30,15,33,8.90
2015,01,30,15,34,8.90
2015,01,30,15,35,8.90
2015,01,30,15,36,8.90
2015,01,30,15,37,8.90
2015,01,30,15,38,8.90
2015,01,30,15,39,8.80
2015,01,30,15,40,8.80
2015,01,30,15,41,8.80
2015,01,30,15,42,8.70
2015,01,30,15,43,8.70
2015,01,30,15,44,8.70
2015,01,30,15,45,8.70
2015,01,30,15,46,8.60
2015,01,30,15,47,8.60
2015,01,30,15,48,8.60
2015,01,30,15,49,8.60
2015,01,30,15,50,8.60
2015,01,30,15,51,8.60
2015,01,30,15,52,8.60
2015,01,30,15,53,8.60
2015,01,30,15,54,8.60
2015,01,30,15,55,8.50
2015,01,30,15,56,8.50
2015,01,30,15,57,8.50
2015,01,30,15,58,8.50
2015,01,30,15,59,8.50
2015,01,30,16,00,8.50
2015,01,30,16,01,8.50
2015,01,30,16,02,8.50
2015,01,30,16,03,8.60
2015,01,30,16,04,8.60
2015,01,30,16,05,8.60
2015,01,30,16,06,8.60
2015,01,30,16,07,8.60
2015,01,30,16,08,8.60
2015,01,30,16,09,8.60
2015,01,30,16,10,8.60
2015,01,30,16,11,8.60
2015,01,30,16,12,8.60
2015,01,30,16,13,8.60
2015,01,30,16,14,8.60
2015,01,30,16,15,8.50
2015,01,30,16,16,8.50
2015,01,30,16,17,8.50
2015,01,30,16,18,8.50
2015,01,30,16,19,8.60
2015,01,30,16,20,8.60
2015,01,30,16,21,8.60
2015,01,30,16,22,8.50
2015,01,30,16,23,8.50
2015,01,30,16,24,8.40
2015,01,30,16,25,8.40
2015,01,30,16,26,8.40
2015,01,30,16,27,8.40
2015,01,30,16,28,8.40
2015,01,30,16,29,8.40
2015,01,30,16,30,8.30
2015,01,30,16,31,8.30
2015,01,30,16,32,8.30
2015,01,30,16,33,8.20
2015,01,30,16,34,8.20
2015,01,30,16,35,8.20
2015,01,30,16,36,8.20
2015,01,30,16,37,8.10
2015,01,30,16,38,8.10
2015,01,30,16,39,8.10
2015,01,30,16,40,8.10
2015,01,30,16,41,8.10
2015,01,30,16,42,8.10
2015,01,30,16,43,8.10
2015,01,30,16,44,8.10
2015,01,30,16,45,8.10
2015,01,30,16,46,8.10
2015,01,30,16,47,8.20
2015,01,30,16,48,8.20
2015,01,30,16,49,8.20
2015,01,30,16,50,8.20
2015,01,30,16,51,8.20
2015,01,30,16,52,8.20
2015,01,30,16,53,8.30
2015,01,30,16,54,8.30
2015,01,30,16,55,8.30
2015,01,30,16,56,8.30
2015,01,30,16,57,8.30
2015,01,30,16,58,8.30
2015,01,30,16,59,8.30
2015,01,30,17,00,8.30
2015,01,30,17,01,8.30
2015,01,30,17,02,8.30
2015,01,30,17,03,8.30
2015,01,30,17,04,8.30
2015,01,30,17,05,8.30
2015,01,30,17,06,8.30
2015,01,30,17,07,8.30
2015,01,30,17,08,8.30
2015,01,30,17,09,8.30
2015,01,30,17,10,8.30
2015,01,30,17,11,8.30
2015,01,30,17,12,8.30
2015,01,30,17,13,8.30
2015,01,30,17,14,8.30
2015,01,30,17,15,8.30
2015,01,30,17,16,8.30
2015,01,30,17,17,8.30
2015,01,30,17,18,8.30
2015,01,30,17,19,8.30
2015,01,30,17,20,8.30
2015,01,30,17,21,8.30
2015,01,30,17,22,8.30
2015,01,30,17,23,8.30
2015,01,30,17,24,8.30
2015,01,30,17,25,8.30
2015,01,30,17,26,8.20
2015,01,30,17,27,8.20
2015,01,30,17,28,8.20
2015,01,30,17,29,8.20
2015,01,30,17,30,8.20
2015,01,30,17,31,8.20
2015,01,30,17,32,8.20
2015,01,30,17,33,8.20
2015,01,30,17,34,8.20
2015,01,30,17,35,8.20
2015,01,30,17,36,8.20
2015,01,30,17,37,8.20
2015,01,30,17,38,8.20
2015,01,30,17,39,8.20
2015,01,30,17,40,8.20
2015,01,30,17,41,8.20
2015,01,30,17,42,8.20
2015,01,30,17,43,8.20
2015,01,30,17,44,8.10
2015,01,30,17,45,8.10
2015,01,30,17,46,8.10
2015,01,30,17,47,8.10
2015,01,30,17,48,8.10
2015,01,30,17,49,8.10
2015,01,30,17,50,8.10
2015,01,30,17,51,8.10
2015,01,30,17,52,8.10
2015,01,30,17,53,8.10
2015,01,30,17,54,8.10
2015,01,30,17,55,8.10
2015,01,30,17,56,8.10
2015,01,30,17,57,8.00
2015,01,30,17,58,8.00
2015,01,30,17,59,8.00
2015,01,30,18,00,8.00
2015,01,30,18,01,7.90
2015,01,30,18,02,7.90
2015,01,30,18,03,7.90
2015,01,30,18,04,7.90
2015,01,30,18,05,7.80
2015,01,30,18,06,7.80
2015,01,30,18,07,7.80
2015,01,30,18,08,7.80